EW6703 Weather Reports


time (UTC)temp
C
wind
direction
speed
KPH
gust
KPH
rain 1hr
cm
rain 24hr
cm
rain mn
cm
humidity
%
barometer
mb
20260505182041 28 263 8.0 27.4 0.00 0.00 0.00 38 997.3
20260505181540 28 190 6.4 27.4 0.00 0.00 0.00 41 997.5
20260505181042 27 117 6.4 22.5 0.00 0.00 0.00 42 997.6
20260505180542 27 215 9.7 24.1 0.00 0.00 0.00 39 997.5
20260505180037 27 256 11.3 32.2 0.00 0.00 0.00 41 997.6
20260505175538 27 238 11.3 32.2 0.00 0.00 0.00 38 997.7
20260505175037 28 191 8.0 25.7 0.00 0.00 0.00 38 997.7
20260505174538 28 217 6.4 25.7 0.00 0.00 0.00 40 997.7
20260505174038 28 140 6.4 17.7 0.00 0.00 0.00 41 997.8
20260505173539 28 238 6.4 17.7 0.00 0.00 0.00 42 997.8
20260505173037 28 225 6.4 12.9 0.00 0.00 0.00 42 997.9
20260505172537 28 233 4.8 14.5 0.00 0.00 0.00 41 997.8
20260505172035 28 165 6.4 16.1 0.00 0.00 0.00 42 997.8
20260505171536 28 213 6.4 19.3 0.00 0.00 0.00 41 997.9
20260505171032 28 210 6.4 19.3 0.00 0.00 0.00 41 998.0
20260505170802 28 254 4.8 12.9 0.00 0.00 0.00 40 998.1
20260505170033 28 191 4.8 12.9 0.00 0.00 0.00 44 998.0
20260505165532 28 228 4.8 11.3 0.00 0.00 0.00 45 998.0
20260505165030 28 171 4.8 16.1 0.00 0.00 0.00 44 998.0
20260505164529 28 219 4.8 16.1 0.00 0.00 0.00 45 998.1
20260505164259 27 239 4.8 20.9 0.00 0.00 0.00 43 998.2
20260505163530 27 211 6.4 20.9 0.00 0.00 0.00 41 998.1
20260505163254 27 211 6.4 20.9 0.00 0.00 0.00 42 998.2
20260505162527 27 217 6.4 20.9 0.00 0.00 0.00 42 998.2
20260505162027 27 220 6.4 17.7 0.00 0.00 0.00 42 998.1
20260505161526 27 97 4.8 17.7 0.00 0.00 0.00 40 998.2
20260505161022 27 227 4.8 14.5 0.00 0.00 0.00 44 998.2
20260505160522 27 237 4.8 12.9 0.00 0.00 0.00 41 998.2
20260505153015 26 251 4.8 20.9 0.00 0.00 0.00 44 998.5
20260505152508 26 227 6.4 19.3 0.00 0.00 0.00 44 998.7
20260505152003 26 214 8.0 19.3 0.00 0.00 0.00 42 998.8
20260505151458 26 236 6.4 20.9 0.00 0.00 0.00 43 998.7
20260505150951 26 234 6.4 20.9 0.00 0.00 0.00 42 998.7
20260505150444 26 257 6.4 19.3 0.00 0.00 0.00 41 998.7
20260505140332 23 233 3.2 12.9 0.00 0.00 0.00 52 999.1
20260505130221 20 249 6.4 16.1 0.00 0.00 0.00 56 999.6
20260505124722 19 240 4.8 16.1 0.00 0.00 0.00 59 999.6
20260505124221 19 211 6.4 16.1 0.00 0.00 0.00 58 999.6
20260505123942 19 238 4.8 12.9 0.00 0.00 0.00 59 999.5
20260505123220 19 252 3.2 6.4 0.00 0.00 0.00 61 999.4
20260505122716 19 232 3.2 6.4 0.00 0.00 0.00 62 999.4
20260505122215 18 231 3.2 12.9 0.00 0.00 0.00 62 999.3
20260505121717 18 213 3.2 12.9 0.00 0.00 0.00 62 999.3
20260505121216 18 245 3.2 11.3 0.00 0.00 0.00 62 999.2
20260505120716 18 216 3.2 8.0 0.00 0.00 0.00 63 999.2
20260505120442 17 232 4.8 11.3 0.00 0.00 0.00 65 999.2
20260505115713 17 215 3.2 11.3 0.00 0.00 0.00 64 999.3
20260505115213 17 219 3.2 16.1 0.00 0.00 0.00 65 999.2
20260505114713 17 253 3.2 16.1 0.00 0.00 0.00 65 999.3
20260505114211 17 214 3.2 11.3 0.00 0.00 0.00 67 999.3
20260505113707 16 264 1.6 6.4 0.00 0.00 0.00 68 999.2
20260505113430 16 247 1.6 9.7 0.00 0.00 0.00 69 999.2
20260505112707 16 250 3.2 11.3 0.00 0.00 0.00 70 999.3
20260505112201 16 227 3.2 11.3 0.00 0.00 0.00 70 999.2
20260505111915 15 214 1.6 6.4 0.00 0.00 0.00 72 999.0
20260505111148 15 217 1.6 9.7 0.00 0.00 0.00 71 999.0
20260505110644 15 215 1.6 9.7 0.00 0.00 0.00 71 998.9
20260505110138 15 178 1.6 6.4 0.00 0.00 0.00 72 998.8
20260505102135 14 241 1.6 6.4 0.00 0.00 0.00 73 998.8
20260505101901 14 286 1.6 6.4 0.00 0.00 0.00 74 998.7
20260505101130 14 253 1.6 6.4 0.00 0.00 0.00 74 998.6
20260505100631 14 274 0.0 3.2 0.00 0.00 0.00 74 998.5
20260505100130 14 276 1.6 3.2 0.00 0.00 0.00 75 998.5
20260505095632 13 275 1.6 6.4 0.00 0.00 0.00 75 998.5
20260505095130 13 255 1.6 11.3 0.00 0.00 0.00 76 998.4
20260505094629 13 298 1.6 11.3 0.00 0.00 0.00 76 998.3
20260505094130 13 206 0.0 3.2 0.00 0.00 0.00 76 998.2
20260505093629 13 232 0.0 3.2 0.00 0.00 0.00 76 998.2
20260505093132 13 225 0.0 3.2 0.00 0.00 0.00 75 998.2
20260505092631 13 225 0.0 6.4 0.00 0.00 0.00 75 998.2
20260505092130 13 225 0.0 6.4 0.00 0.00 0.00 74 998.3
20260505091632 13 260 0.0 1.6 0.00 0.00 0.00 74 998.2
20260505091131 13 260 0.0 1.6 0.00 0.00 0.00 73 998.2
20260505090854 14 260 0.0 1.6 0.00 0.00 0.00 73 998.3
20260505090130 14 260 0.0 1.6 0.00 0.00 0.00 72 998.2
20260505085630 14 260 0.0 1.6 0.00 0.00 0.00 71 998.1
20260505085130 14 260 0.0 1.6 0.00 0.00 0.00 72 998.1
20260505084629 14 260 0.0 3.2 0.00 0.00 0.00 71 998.1
20260505084125 15 260 0.0 3.2 0.00 0.00 0.00 70 998.1
20260505083618 15 260 0.0 1.6 0.00 0.00 0.00 70 998.2
20260505083112 15 260 0.0 3.2 0.00 0.00 0.00 70 998.2
20260505082607 15 260 0.0 4.8 0.00 0.00 0.00 69 998.3
20260505082100 15 261 0.0 3.2 0.00 0.00 0.00 69 998.2
20260505081554 15 261 0.0 3.2 0.00 0.00 0.00 69 998.2
20260505081048 15 262 0.0 1.6 0.00 0.00 0.00 69 998.2
20260505080542 15 262 0.0 0.0 0.00 0.00 0.00 69 998.2
20260505080037 15 262 0.0 1.6 0.00 0.00 0.00 68 998.2
20260505075529 15 262 0.0 1.6 0.00 0.00 0.00 68 998.1
20260505075023 15 262 0.0 4.8 0.00 0.00 0.00 68 998.2
20260505074516 15 262 0.0 4.8 0.00 0.00 0.00 68 998.2
20260505074230 15 267 0.0 3.2 0.00 0.00 0.00 68 998.3
20260505073504 15 242 0.0 3.2 0.00 0.00 0.00 68 998.3
20260505072958 15 242 0.0 3.2 0.00 0.00 0.00 68 998.3
20260505072709 15 242 0.0 6.4 0.00 0.00 0.00 68 998.2
20260505071946 15 242 0.0 6.4 0.00 0.00 0.00 68 998.2
20260505071440 15 240 0.0 4.8 0.00 0.00 0.00 68 998.3
20260505070933 15 241 0.0 4.8 0.00 0.00 0.00 68 998.2
20260505070653 15 241 0.0 4.8 0.00 0.00 0.00 68 998.2
20260505065921 15 241 1.6 4.8 0.00 0.00 0.00 68 998.2
20260505065417 15 272 1.6 4.8 0.00 0.00 0.00 68 998.2
20260505064910 15 266 1.6 4.8 0.00 0.00 0.00 68 998.2
20260505064710 15 254 0.0 3.2 0.00 0.00 0.00 68 998.2
20260505063352 15 254 0.0 3.2 0.00 0.00 0.00 67 998.3
20260505062845 15 254 1.6 4.8 0.00 0.00 0.00 66 998.3
20260505062340 15 254 1.6 4.8 0.00 0.00 0.00 66 998.4
20260505061835 15 258 1.6 4.8 0.00 0.00 0.00 65 998.2
20260505061550 15 263 1.6 8.0 0.00 0.00 0.00 65 998.1
20260505061051 15 288 3.2 8.0 0.00 0.00 0.00 65 998.2
20260505060316 15 236 1.6 6.4 0.00 0.00 0.00 65 998.2
20260505055810 15 259 1.6 8.0 0.00 0.00 0.00 65 998.1
20260505055304 15 275 3.2 8.0 0.00 0.00 0.00 65 998.1
20260505054759 15 236 1.6 11.3 0.00 0.00 0.00 65 998.1
20260505054512 15 148 3.2 11.3 0.00 0.00 0.00 65 998.2
20260505053745 15 228 3.2 8.0 0.00 0.00 0.00 65 998.1
20260505053241 15 231 1.6 6.4 0.00 0.00 0.00 65 998.1
20260505052958 15 205 0.0 3.2 0.00 0.00 0.00 64 998.2
20260505052242 15 200 0.0 4.8 0.00 0.00 0.00 63 998.2
20260505052000 15 199 1.6 4.8 0.00 0.00 0.00 63 998.3
20260505051239 15 214 1.6 4.8 0.00 0.00 0.00 62 998.3
20260505050738 15 215 1.6 4.8 0.00 0.00 0.00 63 998.3
20260505050237 15 240 1.6 8.0 0.00 0.00 0.00 62 998.3
20260505041732 15 84 0.0 4.8 0.00 0.00 0.00 57 998.3
20260505041232 15 84 0.0 4.8 0.00 0.00 0.00 57 998.3
20260505040732 16 73 0.0 3.2 0.00 0.00 0.00 56 998.2
20260505040232 16 74 0.0 4.8 0.00 0.00 0.00 56 998.1
20260505035727 16 125 0.0 3.2 0.00 0.00 0.00 56 998.1
20260505035220 16 236 0.0 3.2 0.00 0.00 0.00 56 998.1
20260505034715 16 233 1.6 4.8 0.00 0.00 0.00 56 998.1
20260505034208 16 233 1.6 4.8 0.00 0.00 0.00 56 998.1
20260505033702 16 69 1.6 8.0 0.00 0.00 0.00 55 998.1
20260505033652 16 96 1.6 8.0 0.00 0.00 0.00 55 998.1
20260505032650 16 275 1.6 8.0 0.00 0.00 0.00 55 998.2
20260505032151 16 237 3.2 8.0 0.00 0.00 0.00 55 998.2
20260505031648 15 225 1.6 8.0 0.00 0.00 0.00 56 998.2
20260505031145 15 257 1.6 4.8 0.00 0.00 0.00 56 998.2
20260505030644 15 188 1.6 4.8 0.00 0.00 0.00 57 998.2
20260505030144 15 195 1.6 4.8 0.00 0.00 0.00 57 998.2
20260505025644 15 182 0.0 4.8 0.00 0.00 0.00 57 998.1
20260505025410 15 112 0.0 3.2 0.00 0.00 0.00 57 998.2
20260505024640 15 105 0.0 3.2 0.00 0.00 0.00 57 998.3
20260505024137 15 105 0.0 3.2 0.00 0.00 0.00 57 998.3
20260505023639 15 34 0.0 3.2 0.00 0.00 0.00 57 998.4
20260505023139 15 28 1.6 4.8 0.00 0.00 0.00 57 998.4
20260505022635 15 5 1.6 4.8 0.00 0.00 0.00 57 998.4
20260505022136 15 0 0.0 4.8 0.00 0.00 0.00 57 998.4
20260505022131 16 72 0.0 1.6 0.00 0.00 0.00 56 998.5
20260505021135 16 72 0.0 0.0 0.00 0.00 0.00 56 998.5
20260505020631 16 72 0.0 3.2 0.00 0.00 0.00 55 998.4
20260505020130 16 72 0.0 3.2 0.00 0.00 0.00 55 998.4
20260505015631 16 72 0.0 0.0 0.00 0.00 0.00 55 998.4
20260505015131 16 72 0.0 3.2 0.00 0.00 0.00 54 998.3
20260505014625 16 72 0.0 3.2 0.00 0.00 0.00 53 998.3
20260505014339 16 301 0.0 6.4 0.00 0.00 0.00 54 998.4
20260505013837 16 301 0.0 6.4 0.00 0.00 0.00 55 998.4
20260505013106 16 258 0.0 4.8 0.00 0.00 0.00 54 998.3
20260505012601 16 257 0.0 4.8 0.00 0.00 0.00 54 998.3
20260505012055 16 180 0.0 4.8 0.00 0.00 0.00 55 998.3
20260505011548 16 186 0.0 3.2 0.00 0.00 0.00 55 998.3
20260505011132 16 186 0.0 3.2 0.00 0.00 0.00 54 998.2
20260505010029 17 186 0.0 0.0 0.00 0.00 0.00 52 998.0
20260505005524 17 186 0.0 0.0 0.00 0.00 0.00 50 997.9
20260505005017 17 186 0.0 0.0 0.00 0.00 0.00 49 997.9
20260505004512 17 186 0.0 0.0 0.00 0.00 0.00 48 997.9
20260505004448 18 186 0.0 0.0 0.00 0.00 0.00 47 997.8
20260505003948 18 186 0.0 0.0 0.00 0.00 0.00 47 997.8
20260505002953 18 186 0.0 0.0 0.00 0.00 0.00 46 997.7
20260505002448 18 186 0.0 0.0 0.00 0.00 0.00 45 997.7
20260505002249 18 186 0.0 1.6 0.00 0.00 0.00 44 997.7
20260505000930 19 186 0.0 1.6 0.00 0.00 0.00 44 997.6
20260505000424 19 186 0.0 3.2 0.00 0.00 0.00 44 997.5
20260504235918 19 186 0.0 4.8 0.00 0.00 0.00 43 997.5
20260504235412 19 187 1.6 4.8 0.00 0.00 0.00 43 997.5
20260504234905 20 187 1.6 3.2 0.00 0.00 0.00 43 997.5
20260504234359 20 184 1.6 4.8 0.00 0.00 0.00 43 997.5
20260504234116 20 223 3.2 11.3 0.00 0.00 0.00 42 997.5
20260504233348 20 209 3.2 11.3 0.00 0.00 0.00 42 997.5
20260504232842 20 217 1.6 8.0 0.00 0.00 0.00 42 997.4
20260504232336 20 244 1.6 11.3 0.00 0.00 0.00 41 997.4
20260504232049 20 232 3.2 11.3 0.00 0.00 0.00 42 997.4
20260504231326 20 199 3.2 12.9 0.00 0.00 0.00 40 997.4
20260504230818 20 232 3.2 12.9 0.00 0.00 0.00 41 997.4
20260504230314 20 229 3.2 11.3 0.00 0.00 0.00 40 997.5
20260504230034 21 254 3.2 9.7 0.00 0.00 0.00 41 997.4
20260504225259 21 201 4.8 9.7 0.00 0.00 0.00 39 997.4
20260504225018 21 226 3.2 11.3 0.00 0.00 0.00 39 997.3
20260504224252 21 201 1.6 11.3 0.00 0.00 0.00 39 997.3
20260504223752 21 217 3.2 9.7 0.00 0.00 0.00 38 997.3
20260504223518 21 32 3.2 14.5 0.00 0.00 0.00 39 997.5
20260504222751 21 253 4.8 14.5 0.00 0.00 0.00 38 997.5
20260504222248 21 340 4.8 14.5 0.00 0.00 0.00 38 997.5
20260504221747 21 216 4.8 11.3 0.00 0.00 0.00 37 997.5
20260504221246 21 229 4.8 11.3 0.00 0.00 0.00 38 997.5
20260504220745 21 189 4.8 22.5 0.00 0.00 0.00 37 997.6
20260504220247 22 232 4.8 22.5 0.00 0.00 0.00 38 997.5
20260504220002 22 316 3.2 14.5 0.00 0.00 0.00 39 997.5
20260504215242 22 245 4.8 20.9 0.00 0.00 0.00 38 997.6
20260504214743 22 279 6.4 20.9 0.00 0.00 0.00 37 997.6
20260504214240 22 224 4.8 14.5 0.00 0.00 0.00 38 997.6
20260504213742 22 92 4.8 14.5 0.00 0.00 0.00 38 997.7
20260504213238 22 188 4.8 14.5 0.00 0.00 0.00 37 997.6
20260504212739 22 219 6.4 16.1 0.00 0.00 0.00 37 997.7
20260504212458 22 188 6.4 19.3 0.00 0.00 0.00 37 997.7
20260504212000 22 205 6.4 19.3 0.00 0.00 0.00 36 997.7
20260504211230 22 225 6.4 17.7 0.00 0.00 0.00 36 997.6
20260504210731 22 269 6.4 17.7 0.00 0.00 0.00 36 997.7
20260504210231 22 290 8.0 17.7 0.00 0.00 0.00 38 997.7
20260504205731 23 219 8.0 17.7 0.00 0.00 0.00 36 997.7
20260504205231 23 111 8.0 24.1 0.00 0.00 0.00 35 997.6
20260504204733 23 197 6.4 24.1 0.00 0.00 0.00 37 997.6
20260504204233 23 279 6.4 24.1 0.00 0.00 0.00 37 997.7
20260504203731 23 229 6.4 24.1 0.00 0.00 0.00 39 997.7
20260504203233 23 217 4.8 16.1 0.00 0.00 0.00 37 997.7
20260504202727 23 219 4.8 16.1 0.00 0.00 0.00 37 997.6
20260504202228 23 211 4.8 16.1 0.00 0.00 0.00 39 997.8
20260504201727 23 213 8.0 19.3 0.00 0.00 0.00 38 997.9
20260504201453 23 232 8.0 19.3 0.00 0.00 0.00 35 997.8
20260504200729 23 200 6.4 19.3 0.00 0.00 0.00 36 997.8
20260504200451 23 225 8.0 20.9 0.00 0.00 0.00 36 997.9
20260504195728 23 227 8.0 20.9 0.00 0.00 0.00 36 998.0
20260504195229 23 233 6.4 17.7 0.00 0.00 0.00 38 998.0
20260504194728 23 202 6.4 14.5 0.00 0.00 0.00 37 998.0
20260504194449 23 162 6.4 17.7 0.00 0.00 0.00 35 998.0
20260504193728 23 219 6.4 17.7 0.00 0.00 0.00 34 998.0
20260504193227 23 214 4.8 14.5 0.00 0.00 0.00 37 998.1
20260504192727 23 121 6.4 17.7 0.00 0.00 0.00 36 998.1
20260504192452 23 272 6.4 17.7 0.00 0.00 0.00 37 998.1
20260504191953 23 246 4.8 12.9 0.00 0.00 0.00 36 998.3
20260504191227 23 217 4.8 16.1 0.00 0.00 0.00 39 998.3
20260504190953 23 211 4.8 16.1 0.00 0.00 0.00 39 998.4
20260504190226 22 189 6.4 17.7 0.00 0.00 0.00 39 998.5
20260504185727 22 241 8.0 17.7 0.00 0.00 0.00 37 998.6
20260504185440 22 200 8.0 17.7 0.00 0.00 0.00 37 998.7
20260504184715 22 177 6.4 17.7 0.00 0.00 0.00 38 998.7
20260504184432 22 229 6.4 24.1 0.00 0.00 0.00 36 998.8
20260504183704 22 227 6.4 24.1 0.00 0.00 0.00 36 998.9
20260504183157 22 260 8.0 22.5 0.00 0.00 0.00 36 998.9
20260504183134 22 215 8.0 22.5 0.00 0.00 0.00 35 999.0
20260504182145 22 261 6.4 20.9 0.00 0.00 0.00 36 999.0